This is the latest recevied weather packets stored in our database for station/object KG5RGN-13. If no packets are shown the sender has not sent any weather packets the latest 1 day(s).
| Time | Temp. | Humidity | Pressure | Rain* | Wind** | Luminosity | Snow |
|---|---|---|---|---|---|---|---|
| 1778020359 | 17.22° C | 100% | 0 hPa | 0 mm | 3.13 m/s, 247° | - | - |
| 1778020059 | 17.78° C | 100% | 0 hPa | 0 mm | 4.02 m/s, 191° | - | - |
| 1778019759 | 17.78° C | 100% | 0 hPa | 0 mm | 1.34 m/s, 217° | - | - |
| 1778019459 | 19.44° C | 100% | 0 hPa | 0 mm | 1.79 m/s, 358° | - | - |
| 1778019159 | 19.44° C | 100% | 0 hPa | 0 mm | 4.47 m/s, 196° | - | - |
| 1778018859 | 20° C | 100% | 0 hPa | 0 mm | 2.24 m/s, 206° | - | - |
| 1778018559 | 20° C | 100% | 0 hPa | 0 mm | 4.02 m/s, 241° | - | - |
| 1778018259 | 20.56° C | 100% | 0 hPa | 0 mm | 7.6 m/s, 358° | - | - |
| 1778017959 | 21.11° C | 100% | 0 hPa | 0 mm | 2.68 m/s, 250° | - | - |
| 1778017659 | 21.11° C | 100% | 0 hPa | 0 mm | 1.34 m/s, 253° | - | - |
| 1778017359 | 21.67° C | 100% | 0 hPa | 0 mm | 4.02 m/s, 292° | - | - |
| 1778017059 | 21.11° C | 100% | 0 hPa | 0 mm | 4.02 m/s, 233° | - | - |
| 1778016759 | 22.22° C | 100% | 0 hPa | 0 mm | 4.02 m/s, 277° | - | - |
| 1778016459 | 22.22° C | 100% | 0 hPa | 0 mm | 3.58 m/s, 223° | - | - |
| 1778016159 | 21.67° C | 100% | 0 hPa | 0 mm | 3.58 m/s, 177° | - | - |
| 1778015859 | 21.11° C | 100% | 0 hPa | 0 mm | 1.34 m/s, 278° | - | - |
| 1778015559 | 20.56° C | 100% | 0 hPa | 0 mm | 6.26 m/s, 267° | - | - |
| 1778015259 | 20.56° C | 100% | 0 hPa | 0 mm | 2.24 m/s, 251° | - | - |
| 1778014959 | 20.56° C | 100% | 0 hPa | 0 mm | 0 m/s | - | - |
| 1778014659 | 20.56° C | 100% | 0 hPa | 0 mm | 3.13 m/s, 203° | - | - |
| 1778014359 | 20° C | 100% | 0 hPa | 0 mm | 3.58 m/s, 192° | - | - |
| 1778014059 | 20° C | 100% | 0 hPa | 0 mm | 2.68 m/s, 247° | - | - |
| 1778013759 | 21.67° C | 100% | 0 hPa | 0 mm | 2.24 m/s, 306° | - | - |
| 1778013459 | 22.78° C | 100% | 0 hPa | 0 mm | 2.24 m/s, 282° | - | - |
| 1778013159 | 22.78° C | 100% | 0 hPa | 0 mm | 4.02 m/s, 268° | - | - |
* Rain latest hour (hover to see other rain measurements)
** Current wind speed in m/s (hover to see current wind gust speed)